Location: Waco, TX
(31.5480°N, 97.1670°W)
Time: 09:23:03
(UTC-05:00)

ISS - Pass Details

Date: 25 May 2017
Orbit: 402 x 409 km, 51.6° (Epoch: 25 May)

Event Time Altitude Azimuth Distance (km) Brightness Sun altitude
Rises 20:05:06 0° 193° (SSW) 2,314 -0.1 3.0°
Reaches altitude 10° 20:07:34 10° 175° (S) 1,458 -1.3 2.5°
Maximum altitude 20:09:57 19° 128° (SE) 1,041 -2.3 2.1°
Drops below altitude 10° 20:12:21 10° 80° (E) 1,464 -1.5 1.6°
Sets 20:14:50 0° 62° (ENE) 2,327 -0.3 1.1°
